#timestamp,LO_Frequency,Hit,StdDev 
1609248635.6,286047018.9,P
1609248655.4,286047020.1,P
1609248675.2,286047019.4,P
1609248695.1,286047021.6,Y
1609248696.0,286047021.6,P
1609248715.8,286046999.8,N
1609248735.7,286047000.3,N
1609248755.5,286047002.3,N
1609248775.3,286047000.8,N
1609248795.2,286047000.3,N
1609248815.0,286047000.4,N
1609248815.9,286047000.4,N
1609248835.7,286047001.6,N
1609248855.6,286047001.4,N
1609248875.4,286047002.2,N
1609248895.3,286047002.3,N
1609248915.1,286047001.8,N
1609248916.0,286047001.8,N
1609248935.8,286047004.3,N
1609248955.7,286047003.7,N
1609248975.5,286047003.0,N
1609248995.3,286047004.2,N
1609249015.2,286047002.9,N
1609249035.0,286047005.9,N
1609249035.9,286047005.9,N
1609249055.8,286047007.6,N
1609249075.6,286047005.7,N
1609249095.4,286047004.7,N
1609249115.3,286047005.4,N
1609249135.1,286047004.8,N
1609249155.9,286047007.3,N
1609249175.7,286047005.3,N
1609249195.5,286047004.5,N
1609249215.4,286047005.1,N
1609249235.2,286047005.2,N
1609249255.0,286047006.0,N
1609249255.9,286047006.0,N
1609249275.8,286047003.7,N
1609249295.6,286047003.4,N
1609249315.5,286047003.6,N
1609249335.3,286047004.8,N
1609249355.1,286047007.5,Y
1609249375.9,286047002.3,P
1609249395.7,286047002.8,N
1609249415.5,286047002.2,N
1609249435.4,286047001.6,N
1609249455.2,286047004.2,Y
1609249475.1,286047000.3,P
1609249476.0,286047000.3,N
1609249495.8,286046999.7,N
1609249515.6,286047002.6,N
1609249535.5,286047001.3,N
1609249555.3,286047002.3,N
1609249575.1,286047002.5,N
1609249595.9,286047002.3,N
1609249615.7,286047002.6,N
1609249635.6,286047002.5,N
1609249655.4,286047002.5,N
1609249675.2,286047002.4,N
1609249695.1,286047000.1,N
1609249696.0,286047000.1,N
1609249715.8,286047002.1,N
1609249735.6,286047002.1,N
1609249755.5,286047002.0,N
1609249775.3,286047002.8,N
1609249795.2,286047000.5,N
1609249815.9,286046999.7,N
1609249835.7,286047002.1,N
1609249855.6,286047001.7,N
1609249875.4,286047001.4,N
1609249895.3,286047002.2,N
1609249915.1,286047002.1,N
1609249916.0,286047002.1,N
1609249935.8,286047002.2,N
1609249955.7,286047002.1,N
1609249975.5,286047002.0,N
1609249995.3,286047004.0,Y
1609250015.2,286046999.9,P
1609250035.0,286046999.8,N
1609250035.9,286046999.8,N
1609250055.8,286047000.9,N
1609250075.6,286047000.3,N
1609250095.4,286047002.5,Y
1609250115.3,286047002.8,P
1609250135.1,286047000.4,N
1609250155.9,286047002.6,N
1609250175.7,286047002.1,N
1609250195.5,286046999.7,N
1609250215.4,286047002.1,N
1609250235.2,286046999.8,N
1609250255.0,286046999.9,N
1609250255.9,286046999.9,N
1609250275.8,286046998.1,N
1609250295.6,286046998.1,N
1609250315.5,286047000.7,N
1609250335.3,286047001.2,N
1609250355.1,286047001.0,N
1609250375.9,286047000.7,N
1609250395.7,286046999.0,N
